User: anonymous   Login
Location: Unspecified
(0.0000°N, 0.0000°E)
Time: 20:35:48
(UTC+00:00)
Language:

USA-167 - Orbit

View from above orbital plane
View from above orbital plane
View from above satellite
View from above satellite

Ground track
Ground track

The orbit data is extracted from the following two-line orbital elements,

1 27691U 03008A   21136.61470025  .00000062  00000-0  00000-0 0  9992
2 27691   7.2771  57.0130 0004115   2.2768 266.6754  1.00270499 14321
Epoch (UTC): 16 May 2021 14:45:10
Eccentricity: 0.0004115
inclination: 7.2771°
perigee height: 35769 km
apogee height: 35804 km
right ascension of ascending node: 57.0130°
argument of perigee: 2.2768°
revolutions per day: 1.00270499
mean anomaly at epoch: 266.6754°
orbit number at epoch: 1432

The dashed part of the orbit path shows where the satellite is in the earth's shadow,  

DLR